Wind_Speed
18 20 21 23 25 26 27 26 26 27 30 31 31 31 31 32 33 34 35 36 37 38 39 40 41 43 44 46 48 49 51 52 54 56 58 59 60 60 60 61 60 59 59 58
19 20 22 24 26 27 28 29 30 31 32 33 33 33 34 35 36 37 38 39 39 40 41 42 43 45 47 48 49 51 53 54 55 57 58 59 59 59 59 59 59 58 57 56
20 21 22 26 27 28 30 31 32 33 34 34 35 35 36 36 37 39 39 40 41 42 43 44 45 46 48 49 50 52 54 55 55 56 57 57 57 57 57 56 56 55 54 53
20 21 24 27 26 28 30 32 33 34 34 35 36 37 37 37 38 38 39 39 40 41 42 43 44 46 48 49 50 51 53 53 54 54 55 54 54 54 53 52 51 50 50 49
19 21 24 25 26 27 28 30 31 32 33 34 35 36 35 36 36 37 37 39 40 41 42 43 44 45 47 48 49 50 50 51 52 52 51 50 50 49 49 48 48 47 47 47
16 18 22 23 24 25 26 28 28 29 30 31 32 32 33 33 34 36 37 38 39 40 41 42 43 44 45 46 47 48 49 49 48 47 47 46 46 45 45 45 45 45 45 45
15 17 20 19 19 20 22 24 24 25 26 27 28 29 30 32 33 35 36 37 38 39 40 41 42 43 44 45 45 45 45 44 44 44 43 43 43 43 44 44 44 44 44 43
14 16 17 17 17 18 19 20 21 22 23 24 25 26 28 30 31 32 34 35 36 37 38 39 40 41 41 41 41 41 41 40 40 41 41 42 42 42 42 42 42 41 39 38
14 15 16 16 16 17 18 18 20 21 21 22 24 25 27 28 29 30 31 33 34 35 36 37 37 37 37 37 37 37 38 38 39 40 41 41 41 40 39 38 36 34 33 31
13 14 15 15 15 16 17 18 19 20 21 22 24 25 26 27 28 29 30 30 31 32 32 32 32 32 32 33 34 36 37 38 39 39 39 38 36 34 32 30 28 26 25 23
13 13 14 15 15 16 17 18 19 20 21 22 22 23 24 25 25 25 26 26 26 26 26 26 27 28 30 32 34 35 36 36 36 35 33 31 28 26 24 22 20 19 18 17
13 13 13 14 14 15 16 17 18 19 19 19 20 20 20 20 20 20 21 21 21 21 22 23 25 28 30 32 33 33 33 32 30 28 25 23 20 18 17 16 14 13 12 11
12 12 13 13 13 14 15 15 16 16 16 16 16 16 16 16 15 15 15 16 17 19 21 23 26 27 29 29 29 29 27 25 23 21 19 16 14 13 11 10 9 8 7 6
11 11 11 11 12 13 13 13 13 13 12 12 12 11 11 11 11 11 12 14 16 18 21 23 24 25 26 26 25 24 22 20 18 15 13 11 9 8 7 6 6 5 5 5
10 9 9 10 10 10 10 11 10 9 9 8 8 7 6 7 7 9 11 13 16 18 20 21 22 23 23 23 22 21 18 16 14 11 9 7 6 6 6 6 7 7 8 9
9 8 8 8 8 8 9 8 7 5 4 4 3 3 3 4 6 9 11 13 15 17 18 20 20 21 21 20 19 18 16 14 12 10 8 7 7 7 7 8 9 10 10 11
8 7 7 7 7 7 6 5 4 2 2 1 0 1 2 4 7 9 11 14 16 17 18 19 19 20 19 19 18 17 15 13 12 11 10 10 9 9 10 11 11 12 12 13
7 6 6 6 6 5 4 2 2 2 2 2 2 2 4 6 8 10 12 14 16 17 18 19 19 19 19 19 18 17 16 15 14 12 12 11 11 12 12 13 13 13 13 13
6 5 5 5 5 3 2 2 3 3 4 4 4 4 5 7 9 11 14 15 17 18 19 20 20 20 19 19 18 18 17 16 15 14 14 13 12 13 13 13 12 12 12 12
5 5 4 4 3 2 2 4 4 5 5 5 5 5 6 8 10 12 14 16 17 19 20 21 21 20 19 19 19 18 18 17 16 15 14 13 12 12 12 11 12 11 11 11
5 4 3 3 2 2 3 5 5 6 6 6 5 6 7 8 10 12 14 16 17 19 20 22 22 21 20 19 18 18 18 17 16 15 14 13 12 11 11 10 11 11 11 11
5 4 3 3 4 4 5 6 6 7 7 6 6 6 7 8 10 12 14 16 17 19 20 21 22 22 21 20 19 18 18 17 16 15 14 13 12 11 11 10 10 10 11 11
6 5 4 5 5 5 6 7 7 7 7 7 6 6 6 8 10 11 13 15 17 19 20 21 22 22 22 21 21 19 18 18 17 16 15 14 13 12 11 11 10 11 11 11
7 6 6 6 6 6 7 8 8 8 8 7 6 6 6 7 8 10 12 14 16 18 19 21 21 22 22 23 23 22 20 19 18 17 16 15 14 13 12 11 11 11 11 12
9 8 7 7 7 8 9 9 10 10 9 8 7 6 6 7 8 9 11 13 15 17 18 20 21 21 22 23 23 23 23 22 21 20 19 17 16 15 13 13 12 12 12 12
10 10 9 9 9 9 10 10 11 11 10 9 8 6 6 6 7 8 9 11 13 15 17 19 20 21 22 22 23 23 24 23 23 23 22 21 20 18 17 15 15 14 14 14
12 11 10 10 10 10 11 12 12 12 12 10 9 7 6 6 6 7 8 10 11 14 16 17 19 20 21 22 22 23 23 24 23 23 23 23 23 22 21 20 19 18 17 17
Wind_Direction
225 230 233 233 234 236 239 240 244 249 255 259 260 261 262 264 266 267 268 270 271 272 273 275 277 279 281 283 284 285 286 287 289 290 291 292 293 293 294 294 295 295 295 294
238 238 239 240 241 242 244 247 249 253 257 260 261 263 265 267 268 269 270 271 272 274 275 277 280 282 283 284 285 287 288 289 290 291 291 292 292 293 293 293 294 294 294 294
248 249 250 250 247 249 249 250 251 253 257 259 262 264 266 268 268 270 272 274 276 276 277 279 281 282 283 285 287 288 289 289 290 291 292 292 293 293 293 293 294 293 294 294
254 254 252 255 255 255 256 256 256 257 260 262 264 266 267 269 270 272 273 275 275 277 279 281 283 284 286 287 288 289 290 291 291 292 293 293 293 293 293 293 293 293 293 294
258 257 258 257 256 257 259 260 260 261 263 264 264 266 267 269 270 271 273 275 278 281 282 284 286 287 288 289 291 291 292 293 293 293 294 294 293 293 292 292 293 293 294 294
263 260 260 262 258 257 259 260 261 261 262 262 263 265 266 268 271 273 275 278 280 282 284 286 288 289 290 291 292 293 293 294 294 294 294 294 294 294 294 294 294 294 294 295
268 264 264 266 263 260 258 258 259 260 262 263 264 267 270 272 273 275 278 280 281 283 286 288 290 292 293 294 294 294 295 295 295 295 295 295 295 295 295 295 295 296 296 296
273 269 267 267 264 260 259 260 261 263 263 265 267 268 271 273 276 278 281 283 285 287 289 291 292 293 294 295 296 296 296 296 296 296 296 296 296 296 296 297 296 296 297 296
278 272 271 269 267 264 263 262 262 263 265 267 270 272 275 278 280 283 285 287 289 290 292 294 295 296 297 297 298 298 298 299 299 299 299 299 299 299 298 298 298 298 298 298
283 277 272 270 268 267 267 267 267 267 269 272 274 276 278 281 284 286 288 290 292 293 295 296 297 298 299 300 301 301 302 302 302 302 302 301 301 300 300 300 300 300 300 300
286 280 275 272 271 271 272 272 273 274 275 277 278 279 282 285 286 288 291 294 296 298 299 300 302 303 305 306 306 307 307 307 306 306 305 305 305 304 304 303 304 304 305 305
288 282 276 274 274 276 277 279 280 279 279 279 282 284 286 288 289 292 296 299 301 303 305 307 310 311 312 313 313 313 312 312 311 311 311 310 309 308 308 310 311 313 314 316
290 284 278 276 278 281 283 284 284 283 281 281 284 287 288 290 294 299 303 305 308 311 314 317 318 319 320 321 320 320 319 319 317 316 316 316 316 315 317 320 325 330 335 342
292 288 284 282 283 284 286 287 287 286 283 282 284 287 290 295 302 307 312 316 319 322 324 326 327 328 329 330 330 330 330 330 328 326 326 329 332 334 340 349 360 12 27 48
292 290 288 288 289 290 290 291 289 286 283 282 284 288 295 305 315 322 327 330 332 333 335 337 338 339 340 341 342 344 345 346 347 348 351 357 5 16 26 35 44 54 67 78
294 292 292 292 294 296 297 293 287 281 280 282 282 291 314 331 338 341 343 345 347 348 350 351 351 352 353 355 356 359 3 8 15 22 29 35 43 51 56 61 67 73 79 86
293 293 295 296 299 299 294 286 273 260 254 225 178 46 15 3 0 359 359 360 2 3 3 4 4 5 7 9 12 16 21 26 33 41 47 54 60 66 70 74 77 80 84 85
288 288 293 297 302 298 288 258 220 179 155 146 121 81 43 26 20 16 15 15 14 14 15 15 15 17 19 23 27 32 36 40 45 50 56 61 68 74 77 79 80 81 81 80
281 282 291 297 300 290 251 190 169 158 147 133 113 80 54 41 34 30 27 25 24 24 24 23 24 25 28 31 35 39 43 47 50 54 59 65 71 76 79 79 78 79 78 77
274 278 285 288 284 254 196 170 161 154 144 133 111 81 62 52 44 38 35 33 31 30 29 28 28 30 33 36 39 42 44 47 51 54 58 64 70 73 76 76 76 75 75 76
264 268 270 261 238 204 178 166 158 151 145 134 112 86 71 59 50 44 39 38 36 34 33 32 34 36 38 39 42 44 45 47 50 52 56 60 65 69 72 74 74 73 74 76
251 248 240 223 203 187 175 166 160 155 148 136 117 96 80 67 56 49 44 41 39 38 37 37 38 40 40 41 43 44 44 45 48 52 55 58 63 67 71 74 74 74 76 79
236 229 218 207 195 186 179 173 166 160 152 140 124 105 88 73 61 53 49 46 43 42 41 41 42 42 42 44 45 45 45 46 49 53 56 59 63 67 70 74 76 77 79 80
225 218 210 205 199 192 186 181 174 167 159 148 135 117 98 82 69 60 55 50 47 45 45 44 45 45 45 46 46 46 47 49 51 54 56 59 62 66 69 73 77 81 83 83
220 214 210 206 201 197 191 186 181 175 169 160 149 131 112 94 79 68 60 55 51 48 47 47 48 47 47 47 48 48 50 53 55 56 58 59 61 64 68 74 79 84 86 86
218 215 210 206 202 197 194 191 187 183 177 170 163 149 131 112 94 79 69 63 56 51 50 50 49 49 48 48 49 50 52 55 57 58 59 60 62 64 68 74 79 84 86 86
217 214 210 205 202 201 200 197 193 189 184 179 173 165 151 133 113 94 79 69 60 55 53 51 51 50 49 49 50 51 52 54 56 58 60 61 63 65 69 73 77 81 84 84
Height
5750 5751 5753 5755 5758 5760 5762 5764 5767 5767 5766 5767 5768 5769 5769 5769 5769 5768 5768 5767 5767 5765 5764 5763 5761 5760 5757 5755 5752 5749 5746 5742 5738 5734 5730 5725 5720 5715 5710 5705 5700 5694 5689 5685
5745 5747 5748 5750 5752 5754 5755 5757 5759 5759 5759 5760 5760 5760 5760 5760 5759 5759 5758 5757 5756 5755 5753 5751 5750 5748 5745 5742 5739 5736 5732 5728 5724 5719 5715 5710 5705 5700 5695 5689 5684 5679 5674 5670
5741 5742 5743 5744 5746 5747 5748 5749 5751 5751 5752 5751 5752 5752 5751 5750 5750 5748 5747 5746 5745 5743 5742 5740 5737 5735 5732 5728 5725 5722 5718 5714 5709 5704 5700 5695 5689 5684 5679 5674 5670 5665 5660 5655
5735 5737 5738 5738 5739 5739 5740 5741 5741 5742 5742 5742 5743 5742 5742 5741 5740 5739 5738 5736 5734 5732 5730 5728 5725 5722 5719 5716 5712 5707 5703 5699 5694 5690 5685 5680 5675 5670 5665 5660 5656 5651 5646 5642
5729 5730 5729 5730 5731 5731 5732 5732 5732 5733 5733 5733 5733 5733 5732 5732 5731 5730 5728 5726 5724 5722 5720 5717 5714 5710 5707 5703 5698 5694 5690 5685 5680 5675 5671 5666 5661 5656 5651 5647 5642 5638 5634 5629
5723 5723 5723 5723 5723 5723 5725 5724 5724 5724 5724 5724 5724 5724 5724 5723 5722 5720 5718 5716 5714 5712 5709 5706 5702 5698 5694 5690 5686 5681 5677 5672 5667 5662 5657 5653 5648 5644 5639 5634 5630 5625 5621 5617
5717 5717 5716 5716 5715 5717 5718 5717 5716 5716 5716 5716 5716 5716 5715 5714 5712 5711 5709 5707 5705 5702 5699 5695 5691 5687 5683 5678 5674 5669 5664 5659 5654 5650 5645 5641 5636 5632 5627 5622 5618 5614 5610 5606
5711 5711 5712 5710 5710 5711 5710 5709 5709 5709 5709 5709 5708 5708 5707 5705 5704 5702 5700 5698 5695 5692 5689 5685 5681 5677 5672 5668 5663 5658 5653 5648 5644 5639 5634 5629 5625 5620 5615 5611 5607 5602 5599 5595
5707 5707 5705 5704 5704 5704 5704 5703 5703 5703 5703 5702 5702 5701 5699 5698 5696 5694 5692 5689 5687 5683 5680 5676 5672 5667 5663 5658 5653 5648 5643 5638 5633 5628 5623 5618 5613 5609 5604 5600 5596 5593 5589 5586
5701 5700 5699 5699 5699 5698 5698 5698 5697 5697 5697 5696 5695 5694 5693 5691 5689 5687 5684 5681 5679 5675 5672 5668 5664 5659 5654 5650 5644 5639 5634 5628 5623 5617 5612 5607 5603 5599 5595 5591 5588 5585 5582 5579
5697 5696 5695 5694 5694 5693 5693 5692 5692 5691 5690 5689 5688 5687 5686 5684 5682 5680 5677 5675 5672 5669 5665 5661 5657 5652 5647 5642 5636 5630 5624 5618 5613 5608 5603 5598 5595 5591 5588 5585 5582 5579 5576 5574
5693 5692 5691 5690 5689 5689 5688 5687 5687 5686 5685 5684 5682 5681 5680 5678 5676 5674 5672 5669 5666 5663 5660 5655 5651 5646 5640 5634 5628 5622 5616 5610 5605 5600 5596 5592 5589 5586 5583 5581 5578 5576 5573 5571
5688 5687 5686 5686 5685 5684 5683 5682 5681 5680 5679 5678 5677 5676 5675 5673 5672 5670 5668 5665 5662 5659 5655 5650 5645 5640 5634 5627 5621 5615 5609 5603 5598 5594 5591 5588 5585 5583 5581 5579 5576 5574 5572 5570
5684 5683 5682 5682 5681 5680 5679 5678 5677 5676 5675 5674 5673 5672 5671 5670 5669 5667 5665 5662 5659 5655 5650 5645 5640 5634 5628 5622 5616 5609 5604 5599 5595 5591 5588 5586 5583 5581 5580 5578 5576 5574 5573 5571
5681 5680 5679 5678 5677 5676 5675 5674 5674 5673 5672 5671 5671 5670 5669 5668 5667 5665 5663 5660 5656 5652 5647 5642 5636 5631 5625 5618 5612 5606 5601 5597 5593 5590 5587 5585 5583 5582 5580 5579 5577 5575 5574 5574
5678 5677 5677 5676 5675 5674 5673 5672 5671 5670 5670 5670 5669 5669 5668 5667 5666 5664 5661 5658 5654 5649 5645 5639 5634 5628 5622 5617 5611 5606 5601 5597 5593 5591 5588 5587 5585 5584 5582 5581 5579 5578 5577 5577
5676 5675 5675 5674 5673 5672 5671 5670 5670 5669 5669 5669 5669 5669 5668 5667 5665 5663 5660 5656 5652 5648 5643 5638 5633 5628 5622 5617 5612 5607 5602 5599 5596 5593 5591 5589 5588 5586 5585 5584 5583 5582 5581 5581
5674 5673 5673 5672 5671 5670 5670 5669 5669 5669 5669 5669 5669 5669 5668 5667 5665 5663 5660 5656 5652 5648 5643 5638 5633 5628 5623 5618 5614 5609 5605 5602 5599 5596 5594 5593 5591 5590 5589 5588 5587 5586 5585 5585
5672 5672 5671 5671 5670 5669 5669 5669 5669 5669 5670 5670 5670 5670 5669 5668 5666 5663 5660 5657 5653 5649 5644 5639 5635 5630 5625 5621 5617 5613 5609 5606 5603 5601 5598 5596 5595 5594 5593 5592 5591 5590 5589 5589
5670 5670 5670 5669 5669 5669 5669 5669 5670 5670 5671 5671 5671 5671 5670 5668 5667 5664 5661 5658 5655 5651 5646 5641 5637 5632 5628 5624 5620 5617 5613 5610 5607 5605 5602 5601 5599 5598 5597 5596 5595 5594 5593 5592
5669 5669 5669 5669 5669 5669 5669 5670 5670 5671 5672 5672 5672 5672 5671 5670 5668 5666 5663 5660 5657 5653 5649 5644 5640 5635 5631 5628 5624 5621 5617 5614 5611 5608 5606 5604 5602 5601 5600 5599 5598 5597 5596 5596
5667 5668 5668 5668 5669 5669 5670 5670 5671 5672 5673 5673 5674 5673 5673 5672 5670 5668 5666 5663 5660 5656 5652 5648 5643 5639 5635 5631 5628 5624 5621 5618 5615 5612 5609 5607 5605 5604 5603 5602 5601 5601 5600 5599
5666 5666 5667 5668 5668 5669 5670 5671 5672 5673 5674 5674 5675 5675 5674 5673 5672 5670 5668 5666 5663 5659 5656 5652 5648 5644 5640 5636 5632 5628 5625 5621 5618 5615 5613 5611 5609 5607 5606 5605 5604 5604 5603 5603
5665 5665 5666 5667 5668 5669 5670 5671 5673 5674 5675 5676 5676 5676 5676 5675 5674 5673 5671 5669 5666 5663 5660 5656 5652 5649 5645 5641 5637 5633 5629 5626 5622 5619 5617 5615 5613 5611 5610 5609 5608 5607 5607 5606
5663 5664 5665 5666 5667 5668 5670 5671 5673 5674 5675 5676 5677 5677 5677 5677 5676 5675 5674 5672 5670 5667 5664 5661 5657 5654 5650 5646 5642 5638 5635 5631 5628 5625 5622 5619 5617 5615 5613 5612 5611 5611 5611 5610
5661 5663 5664 5665 5666 5668 5669 5671 5672 5674 5676 5677 5678 5678 5678 5678 5678 5677 5676 5675 5673 5671 5668 5665 5662 5659 5655 5652 5648 5645 5641 5638 5634 5631 5628 5625 5622 5620 5618 5616 5616 5615 5615 5615
5659 5661 5662 5663 5665 5667 5668 5670 5672 5674 5675 5677 5678 5679 5680 5680 5680 5679 5679 5678 5676 5674 5672 5670 5667 5664 5661 5658 5654 5651 5648 5645 5641 5638 5635 5632 5629 5627 5625 5623 5622 5621 5620 5620